Stations météo

Publicité
Berus, Allemagne (10704): Température de l'air & dewpoint: 13.04.2019 05:00:00 - 19.04.2019 05:00:00 (CEST)Berus, Allemagne (10704): Température de l'air 5cm & Température de l'air -5cm: 13.04.2019 05:00:00 - 19.04.2019 05:00:00 (CEST)Berus, Allemagne (10704): Température de l'air -20cm & Température de l'air -100cm: 13.04.2019 05:00:00 - 19.04.2019 05:00:00 (CEST)Berus, Allemagne (10704): Vitesse du vent & gusts: 13.04.2019 05:00:00 - 19.04.2019 05:00:00 (CEST)Berus, Allemagne (10704): Direction du vent: 13.04.2019 05:00:00 - 19.04.2019 05:00:00 (CEST)Berus, Allemagne (10704): reduced air pressure: 13.04.2019 05:00:00 - 19.04.2019 05:00:00 (CEST)Berus, Allemagne (10704): visibility: 13.04.2019 05:00:00 - 19.04.2019 05:00:00 (CEST)Berus, Allemagne (10704): Ensoleillement: 13.04.2019 05:00:00 - 19.04.2019 05:00:00 (CEST)Berus, Allemagne (10704): Quantités de précipitations: 13.04.2019 05:00:00 - 19.04.2019 05:00:00 (CEST)
Date & Time tt [°C] td [°C] tt 5cm [°C] tt -5cm [°C] tt -20cm [°C] tt -100cm [°C] ff [km/h] ff [knt] fx [km/h] fx [knt] dd ppp [hPa] vv [km] sd [min] rr [mm]
19.04.2019 05:00:00 11,5 2,7 9,7 8,5 12,1 9,0 20 11 25 14 NE 1024,6 52 0 0,0
19.04.2019 04:00:00 11,8 2,9 9,2 8,9 12,4 9,0 19 10 25 13 NE 1024,2 60 0 0,0
19.04.2019 03:00:00 12,1 3,1 9,7 9,4 12,8 9,0 19 10 23 12 NE 1024,0 55 0 0,0
19.04.2019 02:00:00 12,6 3,5 10,4 10,0 13,1 9,0 18 10 23 12 NE 1024,0 56 0 0,0
19.04.2019 01:00:00 13,2 3,7 11,1 10,6 13,5 9,0 17 9 23 12 NE 1023,8 55 0 0,0
19.04.2019 00:00:00 13,6 3,7 11,3 11,3 14,0 9,0 16 9 22 12 NE 1023,5 54 0 0,0
18.04.2019 23:00:00 14,2 3,0 11,7 12,2 14,4 9,0 16 9 24 13 NE 1023,1 53 0 0,0
18.04.2019 22:00:00 14,8 2,7 12,5 13,4 14,8 8,9 16 9 23 12 NE 1022,7 39 0 0,0
18.04.2019 21:00:00 15,8 3,3 13,2 15,2 15,1 8,9 14 8 28 15 NE 1022,2 57 10 0,0
18.04.2019 20:00:00 18,1 2,2 16,1 17,9 15,2 8,9 13 7 36 20 ENE 1021,4 60 60 0,0
18.04.2019 19:00:00 19,3 2,6 18,9 21,2 15,0 8,9 18 10 41 22 ENE 1020,7 68 60 0,0
18.04.2019 18:00:00 20,1 3,2 21,3 23,7 14,6 8,9 21 11 40 22 NE 1020,4 75 60 0,0
18.04.2019 17:00:00 20,1 3,9 22,4 25,1 14,0 8,9 26 14 41 22 NE 1020,3 75 60 0,0
18.04.2019 16:00:00 19,8 4,4 22,8 25,5 13,2 8,9 26 14 43 23 NE 1020,5 40 60 0,0
18.04.2019 15:00:00 19,3 2,6 23,1 24,8 12,3 8,8 22 12 40 22 ENE 1020,8 1,8 60 0,0
18.04.2019 14:00:00 18,8 2,3 23,0 23,5 11,4 8,8 27 15 43 23 NE 1021,0 40 60 0,0
18.04.2019 13:00:00 17,7 3,5 22,2 20,7 10,6 8,8 22 12 36 19 NE 1021,5 70 60 0,0
18.04.2019 12:00:00 17,6 4,2 21,8 18,0 10,0 8,8 14 7 33 18 E 1021,9 75 60 0,0
18.04.2019 11:00:00 15,3 2,9 18,3 14,8 9,5 8,8 21 12 35 19 ENE 1022,4 53 60 0,0
18.04.2019 10:00:00 13,4 4,0 16,1 11,4 9,3 8,8 19 10 31 17 NE 1022,7 57 60 0,0
18.04.2019 09:00:00 11,0 2,7 11,9 8,1 9,4 8,8 21 11 32 17 NE 1023,0 36 60 0,0
18.04.2019 08:00:00 9,2 1,4 8,6 6,0 9,7 8,8 22 12 30 16 NE 1022,9 47 45 0,0
18.04.2019 07:00:00 8,7 0,9 6,7 5,9 10,0 8,8 24 13 30 16 NE 1022,4 43 0 0,0
18.04.2019 06:00:00 8,6 1,2 6,6 6,3 10,3 8,8 22 12 27 15 NE 1022,2 40 0 0,0
18.04.2019 05:00:00 9,1 1,9 7,2 6,9 10,6 8,8 21 11 26 14 NE 1022,4 35 0 0,0
18.04.2019 04:00:00 9,6 2,9 7,7 7,4 10,9 8,8 20 11 26 14 NE 1022,1 32 0 0,0
18.04.2019 03:00:00 10,0 3,9 7,7 8,0 11,2 8,8 17 9 23 12 NE 1021,7 28 0 0,0
18.04.2019 02:00:00 10,6 5,1 8,3 8,7 11,5 8,8 16 9 21 11 NE 1021,5 28 0 0,0
18.04.2019 01:00:00 11,1 6,3 8,9 9,5 11,7 8,8 18 10 23 13 NE 1021,2 28 0 0,0
18.04.2019 00:00:00 11,7 7,7 10,3 10,6 12,0 8,8 15 8 23 13 NE 1021,2 27 0 0,0
17.04.2019 23:00:00 12,2 8,2 11,3 10,9 12,3 8,8 17 9 23 12 NE 1021,5 30 0 0,0
17.04.2019 22:00:00 12,0 7,9 10,2 11,1 12,6 8,8 16 9 22 12 NE 1021,3 44 0 0,0
17.04.2019 21:00:00 12,7 8,2 10,3 12,3 12,9 8,7 14 8 20 11 NE 1021,1 67 12 0,0
17.04.2019 20:00:00 14,1 7,5 12,3 14,1 13,0 8,7 10 5 26 14 ENE 1020,5 75 9 0,0
17.04.2019 19:00:00 15,9 7,4 15,7 16,5 13,0 8,7 15 8 25 14 NE 1019,9 61 20 0,0
17.04.2019 18:00:00 15,8 6,5 15,9 17,2 12,8 8,7 6 3 23 12 E 1020,2 75 11 0,0
17.04.2019 17:00:00 15,9 6,6 16,9 18,9 12,3 8,7 8 5 23 12 ENE 1020,4 71 32 0,0
17.04.2019 16:00:00 15,9 7,1 17,9 20,3 11,9 8,7 9 5 16 9 ENE 1020,5 55 22 0,0
17.04.2019 15:00:00 14,3 7,1 16,7 19,6 11,4 8,7 6 3 19 10 ESE 1021,2 41 19 0,0
17.04.2019 14:00:00 14,5 7,7 17,7 19,9 10,9 8,7 7 4 16 9 ESE 1021,3 49 17 0,0
17.04.2019 13:00:00 12,7 7,3 13,9 17,0 10,5 8,7 8 4 15 8 E 1021,9 27 5 0,0
17.04.2019 12:00:00 12,2 8,0 14,6 16,0 10,0 8,7 6 3 13 7 NNE 1022,2 13 11 0,0
17.04.2019 11:00:00 11,8 6,8 14,8 15,7 9,6 8,7 5 3 11 6 SSE 1022,2 13 14 0,0
17.04.2019 10:00:00 10,2 8,3 11,5 12,7 9,4 8,7 5 3 12 7 SW 1022,1 4,5 19 0,0
17.04.2019 09:00:00 9,3 8,7 10,7 9,8 9,4 8,7 7 4 13 7 SSW 1021,8 3,2 40 0,0
17.04.2019 08:00:00 7,8 7,7 7,7 8,6 9,4 8,7 8 5 17 9 SSW 1021,7 1,2 0 0,0
17.04.2019 07:00:00 7,9 7,8 7,8 8,4 9,6 8,7 12 6 16 9 S 1021,1 1,0 0 0,0
17.04.2019 06:00:00 7,9 7,8 7,7 8,5 9,7 8,7 11 6 14 7 S 1020,8 0,3 0 0,0
17.04.2019 05:00:00 7,7 7,6 6,8 8,6 9,8 8,7 6 4 16 9 SW 1020,5 1,0 0 0,0
17.04.2019 04:00:00 8,4 8,3 8,4 9,2 9,9 8,7 10 5 24 13 SW 1020,3 2,3 0 0,0
17.04.2019 03:00:00 8,7 8,6 8,7 9,5 10,0 8,7 17 9 25 13 SW 1020,0 3,8 0 0,0
17.04.2019 02:00:00 9,0 9,0 9,0 9,5 10,1 8,7 16 9 24 13 SSW 1019,6 0,2 0 0,7
17.04.2019 01:00:00 8,8 8,7 8,8 9,6 10,2 8,7 10 6 17 9 S 1019,6 0,2 0 0,6
17.04.2019 00:00:00 8,7 8,6 8,7 9,7 10,3 8,7 11 6 22 12 S 1019,6 0,9 0 0,6
16.04.2019 23:00:00 8,5 8,4 8,6 9,9 10,5 8,7 7 4 19 11 SE 1019,6 2,0 0 0,7
16.04.2019 22:00:00 8,9 8,7 8,9 10,2 10,6 8,6 10 6 17 9 SSE 1019,5 3,3 0 0,9
16.04.2019 21:00:00 9,1 8,8 9,0 10,6 10,8 8,6 11 6 18 10 SSE 1019,1 8 0 0,8
16.04.2019 20:00:00 9,1 8,7 9,1 11,3 10,9 8,6 11 6 18 10 SSE 1018,8 12 0 0,7
16.04.2019 19:00:00 9,6 9,0 9,7 12,2 10,9 8,6 9 5 20 11 S 1018,5 9 0 0,8
16.04.2019 18:00:00 10,0 9,4 10,4 13,0 10,9 8,6 10 5 19 11 SSW 1018,1 6 0 1,2
16.04.2019 17:00:00 10,9 8,2 10,8 14,5 10,7 8,6 13 7 18 10 SSW 1017,8 12 0 0,1
16.04.2019 16:00:00 11,1 7,9 11,4 14,7 10,6 8,6 10 6 22 12 SSW 1017,9 21 0 0,2
16.04.2019 15:00:00 10,2 8,2 10,2 14,2 10,3 8,6 16 9 34 18 SW 1018,1 22 0 0,4
16.04.2019 14:00:00 11,8 5,5 13,1 15,6 9,9 8,6 21 11 36 19 WSW 1017,3 57 3 0,0
16.04.2019 13:00:00 14,3 5,7 18,3 17,2 9,2 8,6 16 9 31 17 SSW 1016,6 66 16 0,0
16.04.2019 12:00:00 14,1 5,1 17,8 16,1 8,6 8,6 22 12 35 19 SSW 1016,5 40 34 0,0
16.04.2019 11:00:00 13,1 4,2 18,4 13,8 8,1 8,6 13 7 25 13 SSW 1016,6 36 60 0,0
16.04.2019 10:00:00 11,1 2,8 14,5 10,1 8,0 8,6 7 4 16 9 SSE 1016,8 36 60 0,0
16.04.2019 09:00:00 8,2 0,7 9,7 6,7 8,0 8,6 8 4 16 9 NE 1016,9 31 60 0,0
16.04.2019 08:00:00 7,2 0,6 6,6 4,9 8,2 8,6 8 4 16 9 NNE 1017,0 35 40 0,0
16.04.2019 07:00:00 6,4 0,3 4,2 4,6 8,5 8,6 11 6 16 9 NE 1016,8 32 0 0,0
16.04.2019 06:00:00 6,5 0,8 3,9 4,8 8,8 8,7 13 7 17 9 NE 1016,8 33 0 0,0
16.04.2019 05:00:00 6,6 1,0 4,2 5,2 9,1 8,7 13 7 16 9 NE 1016,8 32 0 0,0
16.04.2019 04:00:00 7,3 1,3 4,5 5,6 9,4 8,7 15 8 17 9 NE 1016,6 30 0 0,0
16.04.2019 03:00:00 7,8 1,6 5,0 6,1 9,7 8,7 13 7 17 9 NE 1016,7 34 0 0,0
16.04.2019 02:00:00 8,4 1,9 5,8 6,8 10,1 8,7 14 8 20 11 NE 1016,9 32 0 0,0
16.04.2019 01:00:00 9,1 2,2 6,7 7,5 10,4 8,7 16 9 20 11 NE 1016,8 35 0 0,0
16.04.2019 00:00:00 9,9 2,5 7,4 8,3 10,8 8,7 16 9 21 12 NE 1016,8 30 0 0,0
15.04.2019 23:00:00 10,5 2,7 7,9 9,2 11,1 8,7 16 8 21 11 NE 1016,8 31 0 0,0
15.04.2019 22:00:00 11,4 2,8 8,9 10,4 11,4 8,7 16 9 28 15 NE 1016,7 30 0 0,0
15.04.2019 21:00:00 12,8 2,9 10,6 12,0 11,6 8,7 17 9 25 14 ENE 1016,6 32 0 0,0
15.04.2019 20:00:00 14,1 2,7 12,6 14,4 11,7 8,7 15 8 36 19 ENE 1016,3 33 50 0,0
15.04.2019 19:00:00 14,9 3,2 14,9 17,6 11,5 8,7 11 6 37 20 E 1016,7 31 58 0,0
15.04.2019 18:00:00 15,1 3,1 16,5 20,2 11,0 8,7 18 10 35 19 ENE 1017,2 28 59 0,0
15.04.2019 17:00:00 15,4 3,1 18,4 21,8 10,3 8,7 16 8 33 18 ENE 1017,7 28 60 0,0
15.04.2019 16:00:00 15,3 1,8 19,2 22,3 9,4 8,7 21 12 41 22 E 1018,3 40 60 0,0
15.04.2019 15:00:00 15,7 3,8 20,7 21,8 8,4 8,7 17 9 36 20 ENE 1018,9 31 59 0,0
15.04.2019 14:00:00 13,4 3,7 18,6 19,9 7,4 8,7 22 12 40 21 NE 1020,1 32 60 0,0
15.04.2019 13:00:00 12,2 3,3 16,9 17,2 6,6 8,7 20 11 36 20 ENE 1021,1 37 60 0,0
15.04.2019 12:00:00 10,1 2,5 15,4 13,7 5,9 8,8 19 10 32 17 NE 1022,4 29 60 0,0
15.04.2019 11:00:00 7,9 1,4 12,3 10,1 5,4 8,8 15 8 29 16 NE 1023,4 26 60 0,0
15.04.2019 10:00:00 5,5 1,3 8,9 6,2 5,2 8,8 19 10 32 18 NE 1024,2 30 60 0,0
15.04.2019 09:00:00 3,0 0,1 4,4 2,8 5,3 8,8 23 12 31 17 NE 1024,9 21 60 0,0
15.04.2019 08:00:00 1,5 -0,3 1,3 1,0 5,5 8,8 17 9 24 13 NE 1025,2 17 39 0,0
15.04.2019 07:00:00 0,4 -0,9 -0,9 1,0 5,7 8,8 17 9 24 13 NE 1025,0 11 0 0,0
15.04.2019 06:00:00 0,3 -1,3 -1,1 1,2 5,9 8,8 16 9 22 12 NE 1025,3 14 0 0,0
15.04.2019 05:00:00 0,8 -1,2 -0,9 1,3 6,2 8,8 15 8 19 10 NE 1025,5 17 0 0,0
15.04.2019 04:00:00 1,2 -1,2 -0,3 1,5 6,4 8,8 17 9 21 11 NE 1025,6 20 0 0,0
15.04.2019 03:00:00 1,6 -1,3 0,0 1,9 6,7 8,8 16 9 21 11 NE 1025,9 22 0 0,0
15.04.2019 02:00:00 2,2 -1,3 0,7 2,5 7,0 8,8 16 8 22 12 NE 1025,9 26 0 0,0
15.04.2019 01:00:00 2,5 -1,2 0,9 2,9 7,3 8,8 15 8 26 14 NE 1025,6 27 0 0,0
15.04.2019 00:00:00 3,4 -1,5 1,5 3,5 7,6 8,8 16 9 24 13 NE 1024,7 29 0 0,0
14.04.2019 23:00:00 4,4 -1,9 2,4 4,4 7,8 8,8 15 8 28 15 NE 1024,6 31 0 0,0
14.04.2019 22:00:00 6,5 -2,3 4,7 5,8 8,0 8,9 14 8 22 12 NE 1024,1 34 0 0,0
14.04.2019 21:00:00 6,5 -2,1 3,7 6,5 8,2 8,9 10 5 22 12 NE 1023,6 35 0 0,0
14.04.2019 20:00:00 7,8 -2,9 6,3 8,3 8,2 8,9 15 8 26 14 ENE 1022,4 35 24 0,0
14.04.2019 19:00:00 8,6 -3,0 8,4 10,8 7,9 8,9 16 9 28 15 ENE 1022,2 32 44 0,0
14.04.2019 18:00:00 8,8 -1,7 10,0 11,7 7,6 8,9 16 9 29 15 NE 1021,6 30 27 0,0
14.04.2019 17:00:00 8,0 -0,9 10,6 12,2 7,2 8,9 14 7 27 15 NE 1021,6 22 20 0,0
14.04.2019 16:00:00 6,7 -0,1 8,1 11,0 6,8 8,9 16 9 24 13 NE 1022,3 19 7 0,0
14.04.2019 15:00:00 5,9 -0,7 9,3 12,0 6,3 8,9 17 9 29 16 NE 1022,5 19 15 0,0
14.04.2019 14:00:00 4,9 -0,7 7,9 9,6 5,9 8,9 17 9 26 14 NE 1022,5 16 0 0,0
14.04.2019 13:00:00 3,9 -0,9 5,6 8,0 5,6 8,9 13 7 22 12 NE 1022,7 16 1 0,0
14.04.2019 12:00:00 3,1 -1,0 5,7 7,0 5,3 8,9 12 7 19 10 NE 1022,5 15 0 0,0
14.04.2019 11:00:00 1,9 -1,3 3,2 5,5 5,1 8,9 13 7 22 12 NE 1022,5 14 1 0,0
14.04.2019 10:00:00 1,3 -1,2 2,8 3,6 5,2 8,9 14 7 22 12 NE 1022,1 11 1 0,0
14.04.2019 09:00:00 0,0 -2,3 0,6 0,6 5,3 8,9 10 6 15 8 NNE 1022,0 10 0 0,0
14.04.2019 08:00:00 -1,1 -3,1 -1,0 0,5 5,5 8,9 11 6 16 8 NNE 1022,2 12 0 0,0
14.04.2019 07:00:00 -1,7 -3,6 -3,3 0,4 5,7 8,9 10 6 15 8 N 1021,8 13 0 0,0
14.04.2019 06:00:00 -1,4 -3,4 -2,8 0,5 6,0 8,9 10 5 15 8 N 1021,7 12 0 0,0
14.04.2019 05:00:00 -1,4 -3,5 -2,8 0,7 6,2 8,9 13 7 19 10 NNE 1021,8 14 0 0,0
14.04.2019 04:00:00 -1,0 -3,6 -2,5 0,9 6,5 8,9 13 7 24 13 NNE 1021,6 20 0 0,0
14.04.2019 03:00:00 -0,7 -3,7 -2,0 1,1 6,8 8,9 16 9 22 12 NNE 1021,5 22 0 0,0
14.04.2019 02:00:00 -0,8 -4,0 -2,4 1,4 7,2 8,9 11 6 16 9 NNE 1022,0 30 0 0,0
14.04.2019 01:00:00 -0,1 -3,8 -1,8 1,8 7,6 8,9 12 7 17 9 NNE 1022,1 35 0 0,0
14.04.2019 00:00:00 0,0 -4,0 -2,1 2,2 8,0 8,9 11 6 20 11 NNE 1022,3 40 0 0,0
13.04.2019 23:00:00 0,1 -3,5 -1,9 3,0 8,4 8,9 11 6 19 11 N 1022,6 40 0 0,0
13.04.2019 22:00:00 0,4 -2,0 -1,5 4,2 8,7 8,9 11 6 21 11 N 1022,6 27 0 0,0
13.04.2019 21:00:00 0,8 -1,7 -0,3 5,7 9,0 8,9 10 6 39 21 N 1022,3 29 0 0,0
13.04.2019 20:00:00 1,8 -1,6 1,7 7,1 9,2 8,9 24 13 36 19 NNE 1021,8 36 0 0,0
13.04.2019 19:00:00 1,8 -0,8 1,9 9,2 9,2 8,9 10 5 34 18 N 1022,0 7 19 0,1
13.04.2019 18:00:00 5,0 -5,3 8,3 12,3 9,0 8,9 7 4 17 9 N 1021,1 43 30 0,0
13.04.2019 17:00:00 3,8 -3,0 6,3 12,0 8,7 8,9 17 9 30 16 NE 1021,4 41 11 0,0
13.04.2019 16:00:00 4,5 -4,1 10,0 13,5 8,3 8,9 9 5 25 13 N 1021,5 32 13 0,0
13.04.2019 15:00:00 2,8 -3,3 5,2 12,4 7,8 8,9 13 7 27 15 NW 1022,1 42 19 0,0
13.04.2019 14:00:00 4,0 -3,0 8,9 13,3 7,4 8,9 16 8 27 14 ENE 1022,0 33 11 0,0
13.04.2019 13:00:00 3,4 -2,7 7,8 10,2 7,1 8,9 17 9 34 18 NE 1022,2 26 5 0,0
13.04.2019 12:00:00 2,5 -4,2 4,2 7,5 6,9 8,9 23 12 34 18 NE 1022,4 33 0 0,0
13.04.2019 11:00:00 3,5 -3,2 6,5 8,3 6,7 8,9 18 10 31 17 NNE 1022,3 28 50 0,0
13.04.2019 10:00:00 1,9 -3,7 4,6 5,4 6,7 9,0 19 10 31 17 NNE 1022,7 33 9 0,0
13.04.2019 09:00:00 1,4 -3,5 2,6 3,9 6,8 9,0 20 11 27 15 NE 1022,8 27 0 0,0
13.04.2019 08:00:00 0,9 -4,1 0,9 2,9 7,0 9,0 16 9 26 14 NNE 1022,6 30 0 0,0
13.04.2019 07:00:00 1,0 -4,3 0,6 2,7 7,2 9,0 17 9 26 14 NNE 1022,0 31 0 0,0
13.04.2019 06:00:00 1,4 -4,3 1,0 3,0 7,4 9,0 21 11 32 17 NNE 1021,8 31 0 0,0
13.04.2019 05:00:00 1,6 -4,0 1,2 3,3 7,6 9,0 18 10 27 15 NE 1021,8 31 0 0,0

tt = Température de l'air
td = dewpoint
tt 5cm = Température de l'air 5cm
tt -5cm = Température de l'air -5cm
tt -20cm = Température de l'air -20cm
tt -100cm = Température de l'air -100cm
ff = Vitesse du vent
fx = gusts
dd = Direction du vent
ppp = reduced air pressure
vv = visibility
sd = Ensoleillement
rr = Quantités de précipitations

stations d'obs. à proximité